Retour au catalogue

KUIPER-00105

ActifCommunicationsLEO
NORAD 65143·PAYLOAD·🇺🇸 United States

Lancé Aug 11, 2025 depuis Cape Canaveral Space Force Station

Loading…

Prochains Passages (prochaines 24 heures)

TLE

FraisSource: CelesTrak SupGP

Époque: Sep 14, 2026, 22:48 UTC

1 65143C 25171M   26257.95043982  .00004360  00000+0  57073-3 0  2571
2 65143  51.9008  48.7457 0000629 112.8921 220.4447 14.79931140    13

Suivez KUIPER-00105 en temps réel avec AllMySat

Download on the App Store